VIR78 TBPB-EGCC

Flight info

Callsign VIR78
Flight time N/A
Altitude 37000
Route BGI DCT FISST/M080 DCT 25N050W 35N040W/M080F390 43N030W 48N020W DCT SOMAX DCT ATSUR DCT GIPER/N0461F390 DCT INRAD DCT BOFUM Q37 MALUD
Aircraft A339/H-SADE1E2E3GHIJ3J5M1P2RWXY/LB2D1

Departure

Time N/A
Airport Grantley Adams International Airport (TBPB)

Arrival

Time 2026-05-07 22:46
Airport Manchester Airport (EGCC)
Time Latitude Longitude Altitude Speed Heading
2026-05-07 22:16 52.77349 -7.74326 38985 ft 497 kts 60°
2026-05-07 22:17 52.82198 -7.60671 38985 ft 497 kts 60°
2026-05-07 22:17 52.93827 -7.27620 38987 ft 495 kts 60°
2026-05-07 22:18 53.14300 -6.68343 38976 ft 495 kts 61°
2026-05-07 22:19 53.27819 -6.28408 38987 ft 494 kts 61°
2026-05-07 22:19 53.41168 -5.88327 38968 ft 492 kts 62°
2026-05-07 22:20 53.53035 -5.47520 38985 ft 489 kts 81°
2026-05-07 22:20 53.53110 -5.26872 38984 ft 486 kts 94°
2026-05-07 22:20 53.52973 -5.20998 38985 ft 486 kts 94°
2026-05-07 22:21 53.52682 -5.09652 38980 ft 486 kts 95°
2026-05-07 22:21 53.52506 -5.03980 38819 ft 486 kts 95°
2026-05-07 22:21 53.52324 -4.98315 38574 ft 484 kts 95°
2026-05-07 22:21 53.52144 -4.92819 37948 ft 484 kts 95°
2026-05-07 22:22 53.51956 -4.87094 36995 ft 485 kts 95°
2026-05-07 22:22 53.51769 -4.81434 35694 ft 484 kts 95°
2026-05-07 22:22 53.51579 -4.75747 34234 ft 490 kts 95°
2026-05-07 22:22 53.51387 -4.70014 32826 ft 491 kts 96°
2026-05-07 22:23 53.51195 -4.64320 31616 ft 486 kts 96°
2026-05-07 22:23 53.51001 -4.58677 30678 ft 481 kts 96°
2026-05-07 22:23 53.50807 -4.53113 30018 ft 473 kts 96°
2026-05-07 22:23 53.50616 -4.47720 29360 ft 464 kts 96°
2026-05-07 22:24 53.50423 -4.42357 28643 ft 457 kts 96°
2026-05-07 22:24 53.50230 -4.37071 27931 ft 450 kts 96°
2026-05-07 22:24 53.50037 -4.31860 27232 ft 444 kts 96°
2026-05-07 22:24 53.49844 -4.26724 26540 ft 438 kts 96°
2026-05-07 22:25 53.49652 -4.21655 25856 ft 432 kts 96°
2026-05-07 22:25 53.49460 -4.16643 25176 ft 427 kts 96°
2026-05-07 22:25 53.49268 -4.11702 24493 ft 422 kts 96°
2026-05-07 22:25 53.49077 -4.06809 23798 ft 418 kts 96°
2026-05-07 22:26 53.48886 -4.01970 23118 ft 412 kts 96°
2026-05-07 22:26 53.48603 -3.97315 22477 ft 402 kts 102°
2026-05-07 22:26 53.47984 -3.92808 21839 ft 392 kts 109°
2026-05-07 22:26 53.47102 -3.88546 21213 ft 383 kts 112°
2026-05-07 22:27 53.46185 -3.84227 20569 ft 408 kts 112°
2026-05-07 22:27 53.45223 -3.79630 19884 ft 424 kts 111°
2026-05-07 22:27 53.44250 -3.74933 19181 ft 426 kts 111°
2026-05-07 22:27 53.43286 -3.70259 18511 ft 422 kts 111°
2026-05-07 22:28 53.42340 -3.65685 17666 ft 409 kts 111°
2026-05-07 22:28 53.41540 -3.61261 17078 ft 396 kts 105°
2026-05-07 22:28 53.41128 -3.56779 16572 ft 384 kts 96°
2026-05-07 22:28 53.40957 -3.52274 16121 ft 389 kts 95°
2026-05-07 22:29 53.40776 -3.47819 15713 ft 385 kts 96°
2026-05-07 22:29 53.40587 -3.43428 15396 ft 372 kts 96°
2026-05-07 22:29 53.40395 -3.39149 14728 ft 365 kts 96°
2026-05-07 22:29 53.40200 -3.34909 14330 ft 367 kts 96°
2026-05-07 22:30 53.40005 -3.30714 13887 ft 366 kts 96°
2026-05-07 22:30 53.39813 -3.26548 13439 ft 361 kts 96°
2026-05-07 22:30 53.39619 -3.22374 13010 ft 358 kts 96°
2026-05-07 22:30 53.39425 -3.18231 12627 ft 353 kts 96°
2026-05-07 22:31 53.39474 -3.14255 12380 ft 331 kts 82°
2026-05-07 22:31 53.40127 -3.10690 11891 ft 314 kts 66°
2026-05-07 22:31 53.41213 -3.07573 11400 ft 306 kts 59°
2026-05-07 22:31 53.42330 -3.04504 11035 ft 310 kts 60°
2026-05-07 22:32 53.43419 -3.01416 10665 ft 305 kts 61°
2026-05-07 22:32 53.44479 -2.98353 10282 ft 304 kts 62°
2026-05-07 22:32 53.45517 -2.95335 9914 ft 303 kts 62°
2026-05-07 22:32 53.46562 -2.92290 9526 ft 300 kts 62°
2026-05-07 22:33 53.47594 -2.89277 9300 ft 293 kts 62°
2026-05-07 22:33 53.48585 -2.86394 8962 ft 278 kts 62°
2026-05-07 22:33 53.49543 -2.83603 8463 ft 271 kts 62°
2026-05-07 22:33 53.50483 -2.80860 8192 ft 274 kts 62°
2026-05-07 22:34 53.51425 -2.78111 7973 ft 265 kts 62°
2026-05-07 22:34 53.52359 -2.75386 8026 ft 272 kts 62°
2026-05-07 22:34 53.53277 -2.72626 8025 ft 270 kts 66°
2026-05-07 22:34 53.53708 -2.69643 8034 ft 266 kts 91°
2026-05-07 22:35 53.53521 -2.66582 8033 ft 263 kts 102°
2026-05-07 22:35 53.53260 -2.63534 8038 ft 263 kts 101°
2026-05-07 22:35 53.53229 -2.60446 8040 ft 266 kts 90°
2026-05-07 22:35 53.53328 -2.57339 8030 ft 265 kts 90°
2026-05-07 22:36 53.53425 -2.54266 7848 ft 262 kts 90°
2026-05-07 22:36 53.53518 -2.51217 7404 ft 261 kts 90°
2026-05-07 22:36 53.53607 -2.48176 6825 ft 260 kts 90°
2026-05-07 22:36 53.53687 -2.45137 6226 ft 259 kts 90°
2026-05-07 22:37 53.53762 -2.42165 5666 ft 256 kts 90°
2026-05-07 22:37 53.53837 -2.39192 5193 ft 252 kts 90°
2026-05-07 22:37 53.53912 -2.36236 5023 ft 255 kts 90°
2026-05-07 22:37 53.53985 -2.33263 4989 ft 255 kts 90°
2026-05-07 22:38 53.54058 -2.30293 4993 ft 254 kts 90°
2026-05-07 22:38 53.54128 -2.27325 5000 ft 254 kts 90°
2026-05-07 22:38 53.54200 -2.24360 4996 ft 254 kts 90°
2026-05-07 22:38 53.54261 -2.21393 4992 ft 253 kts 93°
2026-05-07 22:39 53.53847 -2.18622 4997 ft 246 kts 121°
2026-05-07 22:39 53.52917 -2.16261 4617 ft 244 kts 123°
2026-05-07 22:39 53.52203 -2.13663 4200 ft 239 kts 116°
2026-05-07 22:39 53.51579 -2.11190 4039 ft 222 kts 116°
2026-05-07 22:40 53.50999 -2.08879 3904 ft 208 kts 117°
2026-05-07 22:40 53.50436 -2.06689 3547 ft 203 kts 117°
2026-05-07 22:40 53.49883 -2.04552 3296 ft 194 kts 119°
2026-05-07 22:40 53.49089 -2.02874 3038 ft 176 kts 151°
2026-05-07 22:41 53.47985 -2.02453 3020 ft 170 kts 187°
2026-05-07 22:41 53.46959 -2.03400 3013 ft 173 kts 224°
2026-05-07 22:41 53.46220 -2.04990 3000 ft 173 kts 232°
2026-05-07 22:41 53.45505 -2.06618 3006 ft 176 kts 231°
2026-05-07 22:42 53.44730 -2.08208 2977 ft 176 kts 230°
2026-05-07 22:42 53.43968 -2.09796 2768 ft 174 kts 230°
2026-05-07 22:42 53.43212 -2.11349 2538 ft 170 kts 230°
2026-05-07 22:42 53.42504 -2.12814 2306 ft 157 kts 230°
2026-05-07 22:43 53.41823 -2.14217 2102 ft 155 kts 229°
2026-05-07 22:43 53.41180 -2.15544 1889 ft 140 kts 229°
2026-05-07 22:43 53.40599 -2.16744 1723 ft 131 kts 228°
2026-05-07 22:43 53.40013 -2.17950 1510 ft 129 kts 229°
2026-05-07 22:44 53.39434 -2.19141 1344 ft 134 kts 228°
2026-05-07 22:44 53.38862 -2.20324 1170 ft 135 kts 228°
2026-05-07 22:44 53.38272 -2.21539 969 ft 134 kts 229°
2026-05-07 22:44 53.37686 -2.22749 786 ft 131 kts 229°
2026-05-07 22:45 53.37086 -2.23979 598 ft 137 kts 230°
2026-05-07 22:45 53.36486 -2.25209 417 ft 138 kts 230°
2026-05-07 22:45 53.35898 -2.26415 282 ft 136 kts 231°
2026-05-07 22:45 53.35390 -2.27463 249 ft 88 kts 231°
2026-05-07 22:46 53.35125 -2.28006 239 ft 43 kts 231°
2026-05-07 22:46 53.35003 -2.28269 237 ft 21 kts 241°
2026-05-07 22:46 53.34955 -2.28510 236 ft 23 kts 253°
2026-05-07 22:46 53.34957 -2.28704 238 ft 13 kts 301°
2026-05-07 22:47 53.35033 -2.28695 236 ft 12 kts 32°
2026-05-07 22:47 53.35090 -2.28582 238 ft 14 kts 56°
2026-05-07 22:47 53.35161 -2.28445 239 ft 17 kts 51°
2026-05-07 22:47 53.35232 -2.28301 238 ft 16 kts 46°
2026-05-07 22:48 53.35323 -2.28195 239 ft 16 kts 20°
2026-05-07 22:48 53.35428 -2.28148 242 ft 16 kts 13°
2026-05-07 22:48 53.35532 -2.28084 240 ft 16 kts 31°
2026-05-07 22:48 53.35599 -2.27948 245 ft 14 kts 49°
2026-05-07 22:49 53.35680 -2.27893 249 ft 12 kts 13°
2026-05-07 22:49 53.35755 -2.27872 253 ft 10 kts
2026-05-07 22:49 53.35822 -2.27860 257 ft 9 kts
2026-05-07 22:49 53.35884 -2.27849 260 ft 9 kts
2026-05-07 22:50 53.35943 -2.27858 261 ft 10 kts 346°
2026-05-07 22:50 53.36032 -2.27945 261 ft 18 kts 325°
2026-05-07 22:50 53.36124 -2.28104 261 ft 20 kts 315°
2026-05-07 22:50 53.36227 -2.28277 261 ft 22 kts 315°
2026-05-07 22:51 53.36348 -2.28447 261 ft 23 kts 330°
2026-05-07 22:51 53.36483 -2.28591 261 ft 18 kts 308°
2026-05-07 22:51 53.36567 -2.28757 261 ft 18 kts 333°
2026-05-07 22:51 53.36678 -2.28722 261 ft 16 kts 51°
2026-05-07 22:52 53.36759 -2.28587 261 ft 17 kts 38°
2026-05-07 22:52 53.36798 -2.28477 261 ft 6 kts 96°
2026-05-07 22:52 53.36762 -2.28419 261 ft 7 kts 147°
2026-05-07 22:52 53.36749 -2.28397 261 ft 0 kts 133°
2026-05-07 22:53 53.36748 -2.28396 261 ft 0 kts 135°